Waskish, MN

6:43 PM CDT on May 27, 2018 (GMT -0500)
Waskish Municipal

Weather History for KVWU - December, 2012

Change the Weather History Date:

Saturday, December 15, 2012

  Actual Average (KBDE) Record (KBDE)
Temperature  
Mean Temperature 27 °F -  
Max Temperature 33 °F 21 °F 43 °F (1997)
Min Temperature 21 °F 3 °F -31 °F (1961)
Degree Days  
Heating Degree Days 38    
Moisture  
Dew Point 28 °F    
Average Humidity 94    
Maximum Humidity 100    
Minimum Humidity 86    
Precipitation  
Precipitation 0.15 in - - ()
Sea Level Pressure  
Sea Level Pressure 29.65 in    
Wind  
Wind Speed 5 mph (ENE)    
Max Wind Speed 12 mph    
Max Gust Speed -    
Visibility 4 miles    
Events Fog , Rain , Snow    
Averages and records for this station are not official NWS values.
T = Trace of Precipitation, MM = Missing Value Source: NWS Daily Summary

Daily Weather History Graph

Daily Weather History Graph

Search for Another Location

Airport or City:

Astronomy

Dec. 15, 2012 Rise Set
Actual Time 8:02 AM CST 4:24 PM CST
Civil Twilight 7:25 AM CST 5:01 PM CST
Nautical Twilight 6:45 AM CST 5:41 PM CST
Astronomical Twilight 6:08 AM CST 6:18 PM CST
Moon 9:47 AM CST (12/15) 7:40 PM CST (12/15)
Length of Visible Light 9h 35m
Length of Day
8h 22m
Waxing Crescent, 8% of the Moon is Illuminated
Dec 15
Waxing Crescent
Dec 19
First Quarter
Dec 28
Full
Jan 4
Last Quarter
Jan 11
New

Hourly Weather History & Observations

Time (CST) Temp. Windchill Dew Point Humidity Pressure Visibility Wind Dir Wind Speed Gust Speed Precip Events Conditions
12:27 AM 26.6 °F 16.2 °F 24.8 °F 93% 29.78 in 10.0 mi ESE 11.5 mph - N/A   Clear
12:48 AM 24.8 °F 14.6 °F 23.0 °F 93% 29.76 in 10.0 mi ESE 10.4 mph - N/A   Clear
1:07 AM 24.8 °F 16.1 °F 23.0 °F 93% 29.75 in 10.0 mi ESE 8.1 mph - N/A   Clear
1:27 AM 24.8 °F 15.3 °F 23.0 °F 93% 29.75 in 10.0 mi East 9.2 mph - N/A   Clear
1:48 AM 24.8 °F 16.9 °F 23.0 °F 93% 29.74 in 10.0 mi East 6.9 mph - N/A   Clear
2:07 AM 24.8 °F 17.9 °F 23.0 °F 93% 29.74 in 7.0 mi East 5.8 mph - N/A   Clear
2:27 AM 23.0 °F 15.8 °F 21.2 °F 93% 29.74 in 7.0 mi East 5.8 mph - N/A   Clear
2:47 AM 23.0 °F 14.7 °F 21.2 °F 93% 29.73 in 7.0 mi East 6.9 mph - N/A   Clear
3:07 AM 24.8 °F 16.9 °F 21.2 °F 86% 29.73 in 7.0 mi East 6.9 mph - N/A   Clear
3:28 AM 23.0 °F - 21.2 °F 93% 29.73 in 7.0 mi Calm Calm - N/A   Clear
3:47 AM 21.2 °F - 21.2 °F 100% 29.72 in 5.0 mi Calm Calm - N/A   Clear
4:07 AM 21.2 °F 16.4 °F 19.4 °F 93% 29.72 in 5.0 mi NE 3.5 mph - N/A   Clear
4:28 AM 21.2 °F 16.4 °F 19.4 °F 93% 29.72 in 5.0 mi ENE 3.5 mph - N/A   Scattered Clouds
4:47 AM 24.8 °F 20.5 °F 23.0 °F 93% 29.72 in 7.0 mi ENE 3.5 mph - N/A   Overcast
5:07 AM 24.8 °F 20.5 °F 23.0 °F 93% 29.71 in 7.0 mi East 3.5 mph - N/A   Overcast
5:28 AM 24.8 °F 20.5 °F 24.8 °F 100% 29.72 in 7.0 mi East 3.5 mph - N/A   Overcast
5:47 AM 24.8 °F 19.1 °F 24.8 °F 100% 29.72 in 7.0 mi East 4.6 mph - N/A   Overcast
6:08 AM 26.6 °F 22.6 °F 24.8 °F 93% 29.72 in 7.0 mi ENE 3.5 mph - N/A   Overcast
6:27 AM 26.6 °F 22.6 °F 24.8 °F 93% 29.72 in 7.0 mi ENE 3.5 mph - N/A   Overcast
6:47 AM 26.6 °F - 26.6 °F 100% 29.72 in 7.0 mi Calm Calm - N/A   Overcast
7:08 AM 26.6 °F 21.2 °F 26.6 °F 100% 29.70 in 7.0 mi East 4.6 mph - N/A   Overcast
7:27 AM 28.4 °F 24.6 °F 26.6 °F 93% 29.70 in 7.0 mi East 3.5 mph - N/A   Overcast
7:47 AM 28.4 °F 24.6 °F 26.6 °F 93% 29.69 in 5.0 mi NE 3.5 mph - N/A   Overcast
8:08 AM 28.4 °F - 26.6 °F 93% 29.68 in 5.0 mi Calm Calm - N/A   Overcast
8:27 AM 28.4 °F 23.3 °F 28.4 °F 100% 29.67 in 4.0 mi NE 4.6 mph - N/A   Overcast
8:47 AM 28.4 °F 23.3 °F 28.4 °F 100% 29.67 in 4.0 mi NE 4.6 mph - N/A   Overcast
9:08 AM 30.2 °F 26.7 °F 28.4 °F 93% 29.67 in 4.0 mi East 3.5 mph - N/A   Overcast
9:27 AM 30.2 °F 25.4 °F 28.4 °F 93% 29.67 in 4.0 mi East 4.6 mph - N/A   Overcast
9:48 AM 30.2 °F 25.4 °F 28.4 °F 93% 29.66 in 3.0 mi East 4.6 mph - N/A   Mist
10:07 AM 32.0 °F 27.5 °F 30.2 °F 93% 29.66 in 2.0 mi East 4.6 mph - N/A   Overcast
10:27 AM 32.0 °F 26.4 °F 30.2 °F 93% 29.65 in 2.0 mi East 5.8 mph - N/A   Overcast
10:48 AM 33.8 °F 26.4 °F 32.0 °F 93% 29.65 in 2.0 mi East 9.2 mph - N/A   Overcast
11:07 AM 33.8 °F 26.4 °F 32.0 °F 93% 29.64 in 2.0 mi ESE 9.2 mph - N/A   Overcast
11:27 AM 33.8 °F 28.6 °F 32.0 °F 93% 29.63 in 1.8 mi ESE 5.8 mph - N/A   Overcast
11:48 AM 33.8 °F 28.6 °F 32.0 °F 93% 29.63 in 1.5 mi East 5.8 mph - 0.01 in   Overcast
12:07 PM 33.8 °F 28.6 °F 32.0 °F 93% 29.62 in 1.5 mi East 5.8 mph - 0.01 in   Overcast
12:27 PM 33.8 °F - 32.0 °F 93% 29.62 in 1.0 mi Calm Calm - 0.03 in Rain Rain
12:48 PM 33.8 °F - 32.0 °F 93% 29.62 in 1.5 mi Calm Calm - 0.05 in Snow Light Snow
1:07 PM 33.8 °F - 32.0 °F 93% 29.61 in 0.5 mi Calm Calm - 0.01 in Snow Light Snow
1:27 PM 33.8 °F - 32.0 °F 93% 29.60 in 0.8 mi Calm Calm - 0.02 in Snow Light Snow
1:48 PM 33.8 °F - 32.0 °F 93% 29.59 in 0.8 mi Calm Calm - 0.03 in Snow Light Snow
2:07 PM 33.8 °F - 32.0 °F 93% 29.59 in 0.8 mi Calm Calm - N/A Snow Light Snow
2:27 PM 33.8 °F - 32.0 °F 93% 29.58 in 0.8 mi Calm Calm - 0.02 in Snow Light Snow
2:48 PM 33.8 °F - 32.0 °F 93% 29.58 in 0.8 mi Calm Calm - 0.03 in Snow Light Snow
3:07 PM 33.8 °F - 32.0 °F 93% 29.59 in 0.5 mi Calm Calm - 0.01 in Snow Light Snow
3:27 PM 33.8 °F - 32.0 °F 93% 29.59 in 1.2 mi Calm Calm - 0.02 in Snow Light Snow
3:48 PM 33.8 °F - 32.0 °F 93% 29.59 in 1.0 mi Calm Calm - 0.03 in Snow Light Snow
4:07 PM 33.8 °F - 32.0 °F 93% 29.59 in 2.0 mi Calm Calm - N/A Snow Light Snow
4:28 PM 33.8 °F 30.8 °F 32.0 °F 93% 29.59 in 4.0 mi NNE 3.5 mph - N/A   Overcast
4:47 PM 33.8 °F - 32.0 °F 93% 29.59 in 5.0 mi Calm Calm - N/A   Overcast
5:07 PM 33.8 °F - 32.0 °F 93% 29.59 in 7.0 mi Calm Calm - N/A   Overcast
5:28 PM 33.8 °F - 32.0 °F 93% 29.59 in 7.0 mi Calm Calm - N/A   Overcast
6:07 PM 33.8 °F - 32.0 °F 93% 29.59 in 4.0 mi Calm Calm - N/A Snow Light Snow
6:28 PM 33.8 °F - 32.0 °F 93% 29.60 in 5.0 mi Calm Calm - N/A   Overcast
6:47 PM 32.0 °F - 32.0 °F 100% 29.60 in 4.0 mi Calm Calm - N/A Snow Light Snow
7:07 PM 33.8 °F - 32.0 °F 93% 29.59 in 4.0 mi Calm Calm - N/A   Overcast
7:28 PM 32.0 °F 26.4 °F 32.0 °F 100% 29.59 in 2.0 mi NW 5.8 mph - N/A Snow Light Snow
7:47 PM 32.0 °F 28.7 °F 32.0 °F 100% 29.59 in 1.5 mi NNW 3.5 mph - N/A   Overcast
8:28 PM 32.0 °F 25.6 °F 30.2 °F 93% 29.59 in 0.8 mi NW 6.9 mph - N/A   Overcast
8:47 PM 32.0 °F 24.8 °F 30.2 °F 93% 29.59 in 0.5 mi NW 8.1 mph - N/A Fog Fog
9:07 PM 30.2 °F 24.3 °F 30.2 °F 100% 29.59 in 0.5 mi NW 5.8 mph - N/A Fog Light Freezing Fog
9:28 PM 30.2 °F 22.6 °F 28.4 °F 93% 29.60 in 1.0 mi NW 8.1 mph - N/A   Overcast
9:47 PM 30.2 °F 23.4 °F 28.4 °F 93% 29.60 in 3.0 mi NW 6.9 mph - N/A   Overcast
10:07 PM 28.4 °F 21.2 °F 28.4 °F 100% 29.61 in 3.0 mi NW 6.9 mph - N/A   Overcast
10:28 PM 28.4 °F 19.7 °F 28.4 °F 100% 29.60 in 3.0 mi NW 9.2 mph - N/A   Overcast
10:47 PM 28.4 °F 19.7 °F 28.4 °F 100% 29.61 in 3.0 mi NW 9.2 mph - N/A   Overcast
11:07 PM 28.4 °F 20.4 °F 26.6 °F 93% 29.61 in 3.0 mi WNW 8.1 mph - N/A   Overcast
11:28 PM 26.6 °F 16.8 °F 26.6 °F 100% 29.62 in 2.5 mi WNW 10.4 mph - N/A   Overcast
11:47 PM 26.6 °F 17.5 °F 24.8 °F 93% 29.62 in 1.5 mi WNW 9.2 mph - N/A   Overcast